Location: Saratoga Springs
(43.0831°N, 73.7850°W)
Time: 12:32:09
(UTC-04:00)

Vanguard 3 - Pass Details

Date: 01 May 2024
Orbit: 509 x 3233 km, 33.3° (Epoch: 23 May)

Event Time Altitude Azimuth Distance (km) Brightness Sun altitude
Exits shadow 04:17:48 - 260° (W) 6,169 11.1 -15.1°
Reaches altitude 10° 04:18:17 10° 259° (W) 6,062 11.0 -15.0°
Maximum altitude 04:35:54 57° 188° (S) 2,763 9.6 -12.4°
Drops below altitude 10° 04:47:03 10° 114° (ESE) 3,993 11.1 -10.7°
Sets 04:49:42 0° 110° (ESE) 4,676 11.6 -10.3°
